Location: Rio Tanui
(39.9167°N, 8.5167°E)
Time: 17:19:08
(UTC+00:00)

Meteor 2-2 Rocket - Pass Details

Date: 20 June 2024
Orbit: 851 x 928 km, 81.3° (Epoch: 14 July)

Event Time Altitude Azimuth Distance (km) Brightness Sun altitude
Rises 01:27:33 0° 5° (N) 3,431 8.5 -20.7°
Reaches altitude 10° 01:30:41 10° 22° (NNE) 2,487 7.8 -20.4°
Maximum altitude 01:34:42 20° 68° (ENE) 1,886 6.6 -20.1°
Drops below altitude 10° 01:38:42 10° 114° (ESE) 2,480 6.7 -19.7°
Sets 01:41:49 0° 131° (SE) 3,418 7.3 -19.3°
